User: anonymous   Login
Location: Unspecified
(0.0000°N, 0.0000°E)
Time: 04:37:33
(UTC+00:00)
Language:

HODOYOSHI 3 - Orbit

View from above orbital plane
View from above orbital plane
View from above satellite
View from above satellite

Ground track
Ground track

The orbit data is extracted from the following two-line orbital elements,

1 40015U 14033F   17324.73984214  .00000160  00000-0  28775-4 0  9996
2 40015  97.8554 214.2848 0038062 128.3297 232.1346 14.78311102184619
Epoch (UTC): 20 November 2017 17:45:22
Eccentricity: 0.0038062
inclination: 97.8554°
perigee height: 608 km
apogee height: 661 km
right ascension of ascending node: 214.2848°
argument of perigee: 128.3297°
revolutions per day: 14.78311102
mean anomaly at epoch: 232.1346°
orbit number at epoch: 18461

The dashed part of the orbit path shows where the satellite is in the earth's shadow,  

DLR